This is the latest recevied weather packets stored in our database for station/object WB0OCV. If no packets are shown the sender has not sent any weather packets the latest 1 day(s).
| Time | Temp. | Humidity | Pressure | Rain* | Wind** | Luminosity | Snow |
|---|---|---|---|---|---|---|---|
| 1778031480 | 13.33° C | 82% | 1016.1 hPa | 0 mm | - | 0 W/m² | - |
| 1778031177 | 13.33° C | 82% | 1016.1 hPa | 0 mm | - | 0 W/m² | - |
| 1778030874 | 13.89° C | 81% | 1016.3 hPa | 0 mm | - | 0 W/m² | - |
| 1778030268 | 13.33° C | 81% | 1015.9 hPa | 0 mm | - | 0 W/m² | - |
| 1778029964 | 13.89° C | 80% | 1016 hPa | 0 mm | - | 0 W/m² | - |
| 1778029662 | 13.89° C | 79% | 1015.8 hPa | 0 mm | - | 0 W/m² | - |
| 1778029057 | 13.89° C | 78% | 1015.7 hPa | 0 mm | - | 0 W/m² | - |
| 1778028753 | 13.33° C | 78% | 1015.9 hPa | 0 mm | - | 0 W/m² | - |
| 1778028449 | 13.33° C | 78% | 1015.5 hPa | 0 mm | - | 0 W/m² | - |
| 1778028147 | 12.78° C | 79% | 1015.4 hPa | 0 mm | - | 0 W/m² | - |
| 1778026628 | 13.33° C | 77% | 1014.9 hPa | 0 mm | - | 0 W/m² | - |
| 1778026325 | 13.33° C | 77% | 1014.6 hPa | 0 mm | - | 0 W/m² | - |
| 1778024205 | 13.89° C | 77% | 1014.7 hPa | 0 mm | - | 5 W/m² | - |
| 1778023903 | 13.89° C | 77% | 1014.6 hPa | 0 mm | - | 7 W/m² | - |
| 1778022693 | 13.89° C | 78% | 1014.1 hPa | 0 mm | - | 17 W/m² | - |
| 1778022391 | 13.89° C | 79% | 1014.3 hPa | 0 mm | - | 18 W/m² | - |
| 1778017844 | 15.56° C | 77% | 1014.3 hPa | 0 mm | - | 82 W/m² | - |
| 1778017542 | 15.56° C | 76% | 1014 hPa | 0 mm | - | 165 W/m² | - |
| 1778016026 | 16.11° C | 72% | 1013.8 hPa | 0 mm | - | 273 W/m² | - |
| 1778014512 | 16.67° C | 71% | 1013.8 hPa | 0 mm | - | 362 W/m² | - |
| 1778012996 | 17.22° C | 71% | 1013.6 hPa | 0 mm | - | 441 W/m² | - |
| 1778012693 | 16.67° C | 70% | 1013.7 hPa | 0 mm | - | 453 W/m² | - |
| 1778012086 | 16.67° C | 70% | 1013.7 hPa | 0 mm | - | 481 W/m² | - |
| 1778010874 | 17.22° C | 70% | 1014 hPa | 0 mm | - | 538 W/m² | - |
| 1778005726 | 17.78° C | 68% | 1014.8 hPa | 0 mm | - | 719 W/m² | - |
* Rain latest hour (hover to see other rain measurements)
** Current wind speed in m/s (hover to see current wind gust speed)